Location: Byszew
(52.1813°N, 19.2693°E)
Time: 19:57:19
(UTC+00:00)

Cosmos 1937 Rocket - Pass Details

Date: 03 March 2021
Orbit: 747 x 780 km, 74.0° (Epoch: 15 April)

Event Time Altitude Azimuth Distance (km) Brightness Sun altitude
Rises 19:20:04 0° 336° (NNW) 3,225 7.5 -26.8°
Reaches altitude 10° 19:22:31 10° 341° (NNW) 2,292 6.5 -27.1°
Enters shadow 19:26:28 44° 17° (NNE) 1,033 4.1 -27.6°
